Location: Newark
(35.5300°N, 14.3000°E)
Time: 21:33:57
(UTC+00:00)

Tiros 1 - Visible Passes

Search period start: 18 November 2019 00:00
Search period end: 28 November 2019 00:00
Orbit: 630 x 664 km, 48.4° (Epoch: 18 November)

Date Brightness Start Highest point End Pass type
(mag) Time Alt. Az. Time Alt. Az. Time Alt. Az.
18 Nov 9.0 16:39:06 10° NW 16:42:05 17° N 16:45:02 10° NE visible
18 Nov 9.3 18:21:17 10° NW 18:22:43 18° NNW 18:22:43 18° NNW visible
19 Nov 8.7 17:05:22 10° NW 17:08:48 20° NNE 17:10:05 18° NE visible
19 Nov 9.8 18:47:08 10° NW 18:47:45 14° NW 18:47:45 14° NW visible
20 Nov 8.2 17:31:17 10° NW 17:35:11 29° NNE 17:35:11 29° NNE visible
21 Nov 8.0 17:57:08 10° NW 18:00:25 39° NNW 18:00:25 39° NNW visible
22 Nov 8.2 16:41:18 10° NW 16:45:16 27° NNE 16:48:04 16° ENE visible
22 Nov 8.6 18:23:09 10° WNW 18:25:47 33° WNW 18:25:47 33° WNW visible
23 Nov 7.4 17:07:08 10° NW 17:11:39 48° NNE 17:13:36 29° E visible
23 Nov 9.6 18:49:37 10° WNW 18:51:19 19° W 18:51:19 19° W visible
24 Nov 7.1 17:33:08 10° NW 17:37:47 80° SW 17:39:23 41° SE visible
25 Nov 7.5 16:17:08 10° NW 16:21:35 45° NNE 16:26:04 10° ESE visible
25 Nov 8.6 17:59:31 10° WNW 18:03:41 33° SW 18:05:30 25° S visible
26 Nov 7.1 16:43:06 10° NW 16:47:45 87° SW 16:52:25 10° SE visible
26 Nov 9.9 18:27:09 10° W 18:29:24 13° SW 18:31:39 10° SSW visible
27 Nov 8.6 17:09:25 10° WNW 17:13:41 36° SW 17:17:58 10° SSE visible
